Temp
0 1 1 2 2 2 2 3 2 2 2 3 3 3 2 2 2 1 2 3 3 3 3 3 4 4 5 5 4 5 5 7 7 9 11 11 13 13 13 13 13 14 14
-1 0 1 1 1 1 2 2 2 2 2 2 2 2 2 2 2 1 1 1 2 2 2 2 2 2 3 3 4 3 3 4 4 5 8 11 11 11 12 12 12 12 13
-2 -1 -1 0 1 1 1 1 2 2 2 2 2 2 2 1 1 1 1 0 1 1 1 1 1 1 2 3 2 3 3 4 4 4 5 9 10 9 9 9 10 10 11
-3 -2 -1 -0 0 0 1 1 1 2 2 2 2 2 2 1 1 1 0 0 0 0 -0 1 1 2 2 2 2 3 2 3 4 5 6 7 7 8 9 9 8 9 10
-4 -4 -3 -1 -0 0 0 0 1 1 1 2 2 2 2 1 1 0 0 0 1 0 0 0 0 1 1 1 1 2 2 3 4 4 5 6 6 8 7 8 7 8 8
-2 -1 -3 -2 -2 -1 -0 -0 0 1 1 1 1 1 1 1 1 0 0 0 0 0 0 0 1 0 0 0 1 1 2 1 3 4 4 4 4 5 5 6 6 6 5
-2 -2 -4 -4 -4 -2 -1 -0 -0 0 0 1 1 1 1 0 0 0 0 -0 -0 -0 -0 0 0 1 0 1 1 1 1 2 3 3 4 3 3 4 4 4 4 4 4
-3 -2 -3 -4 -4 -3 -2 -1 -1 -1 -1 -0 0 0 0 0 -0 -0 -0 -0 -0 -0 -0 -0 -0 0 0 0 1 1 1 1 2 2 2 2 2 3 3 3 3 4 3
-3 -4 -4 -4 -4 -3 -3 -2 -2 -2 -1 -1 -1 -0 -0 -0 -0 -1 -1 -1 -1 -1 -1 -0 -0 -0 -0 0 0 0 1 1 1 1 1 1 1 2 2 2 3 2 3
-4 -4 -4 -5 -4 -4 -4 -3 -3 -2 -2 -2 -2 -1 -1 -1 -1 -1 -1 -1 -1 -1 -1 -1 -1 -1 -1 -0 -1 -0 -0 -0 -0 -0 0 0 0 0 1 1 1 1 1
-4 -4 -4 -4 -4 -4 -4 -4 -3 -3 -3 -3 -2 -2 -2 -2 -2 -2 -1 -1 -1 -1 -1 -2 -2 -1 -1 -1 -1 -1 -1 -1 -1 -1 -0 -1 -0 -0 -0 0 0 0 0
-5 -6 -5 -5 -4 -4 -4 -4 -4 -3 -3 -3 -3 -3 -2 -2 -2 -2 -2 -2 -2 -2 -2 -2 -2 -2 -2 -2 -2 -1 -1 -1 -1 -1 -1 -1 -1 -1 -1 -1 -1 -1 -1
-7 -8 -7 -7 -6 -5 -4 -4 -4 -4 -4 -3 -3 -3 -3 -3 -2 -2 -2 -2 -2 -2 -2 -2 -2 -2 -2 -2 -2 -2 -2 -2 -2 -2 -2 -2 -2 -1 -1 -1 -1 -1 -1
-5 -9 -9 -7 -6 -5 -5 -4 -4 -4 -4 -4 -3 -3 -3 -2 -2 -2 -2 -2 -2 -2 -2 -2 -2 -2 -2 -2 -2 -2 -2 -2 -2 -2 -2 -2 -2 -2 -2 -2 -2 -2 -2
-4 -6 -8 -6 -6 -5 -5 -5 -5 -5 -4 -3 -3 -3 -3 -3 -3 -3 -2 -2 -2 -2 -3 -3 -3 -3 -3 -2 -2 -2 -3 -3 -3 -3 -3 -3 -3 -3 -3 -2 -2 -2 -2
-3 -4 -5 -6 -7 -7 -6 -6 -6 -6 -6 -4 -4 -4 -4 -4 -4 -3 -3 -3 -3 -3 -3 -3 -3 -3 -3 -3 -3 -3 -3 -3 -3 -3 -3 -3 -3 -3 -3 -3 -3 -2 -2
-5 -5 -6 -7 -7 -8 -8 -8 -7 -7 -7 -6 -5 -5 -4 -4 -4 -4 -4 -4 -4 -3 -3 -3 -4 -4 -4 -3 -4 -3 -3 -3 -3 -3 -3 -3 -3 -3 -3 -3 -3 -3 -3
-6 -6 -7 -8 -8 -8 -9 -9 -9 -8 -8 -7 -7 -6 -6 -6 -5 -5 -4 -4 -4 -4 -4 -4 -4 -4 -4 -4 -5 -4 -4 -4 -4 -4 -4 -4 -4 -4 -4 -4 -4 -4 -4
-9 -8 -9 -9 -9 -9 -10 -10 -10 -10 -9 -9 -9 -8 -8 -7 -7 -6 -6 -6 -5 -5 -5 -5 -5 -5 -4 -4 -5 -5 -4 -4 -4 -4 -4 -4 -4 -4 -5 -4 -4 -4 -4
-8 -9 -9 -10 -10 -10 -11 -11 -11 -11 -11 -10 -10 -10 -9 -9 -9 -8 -7 -7 -7 -6 -6 -5 -5 -5 -5 -5 -5 -6 -5 -5 -5 -5 -4 -4 -5 -5 -5 -5 -5 -5 -5
-9 -10 -10 -11 -11 -11 -12 -12 -12 -11 -11 -11 -11 -11 -10 -10 -10 -9 -9 -9 -8 -8 -7 -7 -6 -6 -5 -5 -5 -6 -6 -5 -5 -5 -5 -5 -5 -5 -5 -5 -5 -5 -6
-10 -11 -11 -12 -11 -12 -12 -12 -12 -12 -12 -12 -12 -12 -11 -11 -11 -11 -10 -10 -10 -9 -8 -8 -7 -6 -6 -6 -6 -6 -6 -5 -5 -5 -5 -5 -5 -5 -6 -6 -6 -6 -6
-11 -12 -12 -12 -12 -12 -13 -13 -12 -13 -13 -12 -12 -12 -12 -11 -11 -11 -11 -11 -10 -10 -10 -9 -9 -8 -7 -6 -6 -6 -6 -5 -5 -5 -5 -5 -5 -6 -6 -7 -8 -8 -8
-12 -13 -13 -14 -13 -13 -13 -13 -13 -13 -13 -13 -12 -12 -12 -11 -11 -11 -11 -11 -11 -11 -11 -11 -10 -9 -8 -7 -6 -6 -6 -5 -5 -4 -5 -5 -6 -6 -6 -7 -7 -8 -9
-13 -14 -14 -14 -14 -14 -14 -13 -13 -13 -13 -13 -13 -12 -12 -12 -12 -11 -11 -11 -11 -11 -10 -10 -9 -9 -9 -7 -6 -7 -6 -6 -5 -5 -5 -6 -6 -7 -7 -8 -8 -9 -9
-14 -14 -15 -15 -14 -14 -14 -13 -14 -14 -14 -14 -13 -13 -12 -12 -12 -12 -12 -10 -10 -9 -9 -8 -8 -8 -8 -7 -7 -7 -6 -6 -7 -7 -6 -6 -7 -7 -8 -8 -9 -10 -10
Height
808 808 808 809 809 808 808 808 808 808 810 810 813 813 815 815 818 821 820 816 818 820 822 821 820 824 819 826 830 829 833 830 833 830 830 830 830 832 835 837 838 840 841
812 811 811 811 811 812 811 810 810 811 812 813 815 816 818 819 819 821 821 821 821 824 826 823 825 827 822 827 827 830 834 834 834 836 835 828 831 834 834 836 837 839 840
816 814 812 813 813 813 812 812 812 813 814 815 816 817 818 820 821 820 823 827 822 828 832 828 827 828 828 825 831 830 830 835 841 838 845 830 830 835 836 839 839 840 840
815 814 812 812 812 813 814 814 815 816 816 816 817 818 818 821 821 823 825 826 826 826 830 826 824 828 827 826 832 829 831 834 835 848 844 837 833 833 843 842 841 841 841
815 814 813 812 813 814 816 817 817 818 818 817 818 819 819 822 823 824 825 823 823 823 830 829 824 828 825 829 832 830 830 834 841 844 844 842 836 833 844 841 844 845 842
815 813 813 812 813 815 817 818 819 819 819 819 820 821 821 821 821 821 823 827 828 826 832 831 827 829 829 832 834 834 834 836 838 840 843 841 836 839 842 841 848 847 845
817 815 815 814 815 817 819 820 820 820 821 821 821 822 824 825 826 826 829 832 831 832 833 830 830 828 833 832 834 832 835 836 835 836 842 844 838 841 842 846 843 844 847
820 818 818 818 818 819 820 821 822 822 823 823 824 824 826 826 827 829 829 829 829 830 830 829 829 832 837 833 833 833 836 837 837 836 839 844 842 842 838 838 841 844 846
821 821 821 821 821 821 822 822 822 823 824 825 825 826 827 828 828 829 830 830 832 831 832 833 832 835 837 832 835 838 836 837 837 836 836 840 841 841 841 838 838 842 846
824 823 823 823 823 823 824 824 825 825 826 826 826 827 828 828 829 829 830 831 832 834 836 835 835 836 835 834 836 837 839 837 837 837 838 839 842 842 841 840 839 841 844
826 826 826 826 826 826 826 826 827 826 827 827 828 828 829 830 830 830 830 832 832 833 835 835 836 835 835 834 835 836 838 838 838 837 837 840 840 842 841 840 839 842 843
829 829 828 828 828 828 828 828 828 828 828 829 829 830 830 830 830 831 831 832 833 833 833 833 835 835 834 835 836 837 836 837 838 836 837 838 840 840 842 841 840 841 844
832 832 831 831 831 831 830 830 830 830 829 829 829 829 829 829 830 831 831 832 833 833 834 835 835 834 835 835 835 836 837 838 837 837 838 838 838 839 841 840 842 842 843
832 833 833 833 833 833 833 832 831 831 830 830 829 829 829 829 829 830 830 830 831 832 832 832 833 833 833 834 834 836 837 837 836 836 836 837 837 838 840 841 843 843 840
832 834 834 834 834 834 834 833 833 831 830 829 829 829 828 828 829 829 829 829 829 829 829 830 831 831 831 832 832 833 833 834 833 834 835 835 837 839 840 842 842 842 841
829 832 833 834 835 835 834 833 832 831 830 829 828 828 828 828 827 828 827 828 828 828 828 828 828 829 830 831 833 834 834 835 835 836 836 837 838 838 839 841 842 841 841
830 831 832 833 834 834 834 833 832 831 830 829 828 827 827 827 827 827 827 826 827 827 826 826 826 826 827 828 830 832 833 834 833 834 835 835 834 835 836 837 837 836 836
830 831 832 832 833 833 832 832 831 831 830 829 828 827 826 826 826 825 825 825 824 824 824 824 824 824 825 826 828 830 831 830 830 831 831 831 831 831 832 832 833 833 832
829 830 831 832 832 832 831 831 830 829 828 827 826 825 825 824 824 823 823 822 822 821 821 821 820 820 820 821 822 824 825 825 825 826 827 827 827 828 829 829 829 829 830
827 828 829 829 830 829 829 828 827 827 826 825 824 823 823 822 821 820 820 820 819 818 818 817 817 816 815 816 816 818 820 820 821 823 824 824 824 825 827 827 826 826 826
826 826 827 827 826 826 826 825 824 823 823 823 822 821 820 819 818 817 816 815 815 814 813 812 812 812 812 812 812 813 814 814 816 818 819 820 822 823 824 824 824 824 824
824 824 824 823 823 823 823 822 822 821 820 819 818 817 816 815 813 812 811 811 810 809 808 808 806 807 807 807 807 807 808 809 810 811 815 817 819 820 821 821 821 822 821
820 820 820 820 820 820 819 818 817 818 817 816 815 814 812 811 810 809 808 807 806 805 804 803 801 800 800 801 801 801 802 803 805 806 809 811 813 816 817 817 818 818 818
816 816 816 816 816 816 816 815 814 814 813 812 811 810 809 808 807 806 805 803 802 801 800 799 797 795 794 793 793 794 795 797 799 801 803 806 808 810 812 813 814 815 815
811 812 812 812 811 812 812 811 811 810 809 808 807 806 805 804 803 802 800 799 798 797 795 793 792 790 789 787 787 787 788 789 792 796 799 800 802 805 807 809 810 811 811
806 806 807 807 807 808 807 807 807 806 805 804 803 802 801 800 799 797 794 794 793 791 790 788 786 783 783 783 783 784 784 785 787 789 791 793 797 800 803 805 807 808 809
Wind_Speed
5 8 8 7 7 7 6 6 6 7 6 7 6 7 7 8 7 6 5 5 4 3 4 6 6 5 8 9 9 8 9 7 10 8 2 3 3 6 8 9 8 8 9
6 7 6 5 5 5 5 5 6 6 5 6 6 5 5 5 6 6 7 7 6 4 3 5 6 6 9 8 10 13 10 8 13 5 10 2 4 7 3 2 4 5 6
5 5 6 3 4 5 5 5 4 3 3 2 3 5 5 5 4 5 5 5 7 5 3 5 6 6 6 8 6 7 10 7 6 8 9 0 2 2 7 7 8 7 8
6 4 6 5 3 3 4 5 4 4 3 4 2 3 4 4 4 4 4 5 4 4 4 4 5 4 5 8 4 6 7 5 6 7 7 4 2 4 1 3 8 8 8
6 6 7 5 2 3 4 4 4 3 3 2 1 1 2 3 5 6 6 7 7 7 6 5 7 3 4 3 2 3 4 3 1 3 3 3 1 5 2 0 1 7 9
6 7 6 4 7 7 6 6 4 6 4 3 3 3 3 5 5 6 6 6 6 7 4 5 6 6 5 2 1 2 4 3 4 0 5 3 3 1 1 2 2 1 6
6 6 7 9 9 9 8 6 5 8 7 5 5 5 5 6 5 6 6 5 5 5 4 5 5 5 3 3 2 3 1 3 4 5 2 1 3 3 4 4 2 2 3
6 8 10 11 11 9 8 6 6 7 7 7 7 6 5 5 5 5 4 4 5 5 5 5 5 4 2 4 3 3 2 2 4 6 5 2 2 3 3 3 2 1 1
6 7 11 12 11 9 9 8 6 5 6 7 6 6 6 4 5 5 5 5 4 5 4 3 4 3 3 4 3 2 3 2 3 4 4 2 3 3 3 4 4 2 1
5 7 10 11 10 9 8 7 6 4 4 4 4 5 4 4 4 3 3 4 4 3 3 3 3 3 4 4 3 3 3 3 3 4 4 3 2 2 3 4 4 2 2
5 6 9 14 13 12 10 8 7 5 4 3 2 2 2 3 2 2 2 2 2 2 2 3 3 3 3 3 3 3 3 3 3 3 3 3 3 4 3 3 3 3 2
4 6 10 13 13 14 14 12 11 8 5 4 2 1 1 1 1 1 0 0 1 1 2 2 1 2 2 2 2 2 2 2 2 2 2 2 2 3 4 4 3 2 2
3 4 10 12 13 13 12 11 11 10 9 6 4 3 2 1 0 1 3 4 4 3 3 3 2 2 1 1 1 1 1 0 1 2 1 2 2 2 3 4 4 3 2
4 2 5 9 11 12 13 13 12 10 5 6 6 5 5 4 3 2 2 3 5 6 6 6 5 5 4 3 2 2 2 1 0 1 1 2 2 2 3 3 4 3 3
4 3 2 4 7 9 11 11 11 11 10 5 3 4 4 4 5 5 5 5 6 6 8 8 8 8 7 6 5 4 3 3 3 2 2 2 2 2 3 5 5 6 6
6 5 3 4 4 6 9 11 13 13 12 10 5 4 3 3 3 5 5 6 7 7 8 9 10 11 10 8 7 7 7 6 5 5 4 3 3 3 3 2 2 3 6
3 2 2 2 4 5 7 9 12 13 12 9 7 3 4 4 6 7 7 6 7 7 8 10 11 13 13 12 11 9 11 11 9 8 6 5 3 5 5 6 6 8 8
1 1 1 4 6 7 9 10 10 10 10 9 7 6 6 6 7 8 8 8 8 8 9 9 10 12 14 14 13 13 13 15 13 11 9 8 6 6 6 6 8 9 9
4 2 2 5 7 9 9 10 11 10 10 9 10 10 10 11 11 11 10 10 11 11 11 11 11 12 14 13 15 14 15 16 16 14 12 10 9 7 6 7 9 10 12
4 5 6 7 8 9 10 11 10 9 9 9 11 12 13 13 14 14 14 14 14 14 13 14 13 14 16 13 14 15 17 18 19 17 15 12 10 8 6 8 10 13 15
7 7 7 9 10 9 9 11 11 12 10 10 13 13 12 14 16 16 16 17 17 18 18 18 17 17 16 16 15 15 19 23 22 20 19 15 10 9 8 8 11 11 10
8 8 8 10 10 9 9 11 13 12 11 13 12 13 13 13 13 14 15 15 17 19 21 22 24 22 21 19 19 17 19 23 25 25 22 17 12 10 8 7 9 7 8
9 9 9 11 11 10 10 12 14 12 13 12 13 14 13 12 12 13 14 14 14 16 18 19 23 26 25 24 21 19 19 22 25 23 21 17 14 11 9 9 5 9 8
9 10 10 11 13 11 11 13 14 12 13 14 15 14 13 13 12 13 14 15 15 17 20 21 22 25 24 23 23 22 20 20 22 23 21 18 16 17 14 11 10 8 7
13 12 13 14 14 12 13 12 12 12 14 14 15 15 13 14 15 16 15 16 18 17 19 22 23 23 24 23 21 21 21 21 25 22 21 21 21 20 16 12 10 9 7
15 16 16 15 15 14 14 13 11 10 11 14 13 14 14 16 16 19 21 18 16 16 18 21 24 25 26 25 20 17 20 19 17 20 25 28 27 24 19 14 12 11 8
Wind_Direction
47 63 68 72 72 72 72 76 82 90 93 82 65 51 62 76 79 60 61 57 46 44 67 64 60 60 64 35 15 14 349 3 346 328 225 198 235 251 252 244 238 234 227
33 43 51 63 70 91 80 77 77 82 80 74 59 59 72 68 73 70 56 59 56 35 41 83 71 64 71 55 41 31 14 7 6 347 292 109 87 70 87 204 194 176 178
5 359 2 39 77 84 86 83 79 77 67 48 59 91 80 81 68 53 45 45 64 64 69 87 94 77 81 79 57 56 38 19 336 3 300 125 107 62 49 85 113 126 133
354 346 353 5 27 76 92 106 92 83 72 64 66 82 73 86 63 67 71 58 66 71 34 59 56 37 53 64 43 66 57 33 22 293 290 331 54 69 306 79 86 100 104
347 336 331 326 149 134 115 109 101 82 58 60 88 30 47 97 111 105 83 63 52 53 34 42 60 39 53 67 40 92 109 66 119 320 302 262 142 81 257 142 95 80 85
0 18 29 72 124 131 126 110 85 71 73 81 83 93 118 115 109 89 74 73 74 69 51 46 58 58 73 97 166 158 153 129 169 35 357 337 32 115 285 55 219 154 75
14 45 38 68 89 103 112 101 76 74 77 84 86 95 113 126 125 125 127 125 99 87 78 61 59 61 47 92 85 82 115 150 130 129 148 19 73 173 171 200 151 126 190
39 45 68 72 80 84 88 85 75 77 79 83 91 102 102 110 119 115 115 101 85 70 59 63 61 59 39 60 70 86 51 86 117 118 128 121 86 56 85 97 74 44 303
52 50 50 63 69 71 72 72 68 74 81 86 90 100 105 108 106 108 109 103 94 74 64 63 73 77 64 68 74 91 99 56 51 72 93 97 53 56 67 91 95 117 233
58 59 54 56 62 65 73 74 75 79 77 81 85 91 96 96 94 96 95 97 89 88 86 79 76 75 73 75 92 93 83 98 96 70 66 81 51 52 58 68 67 76 154
43 54 69 65 68 68 70 66 64 69 76 75 72 78 90 85 85 84 77 60 63 57 61 68 75 75 68 75 85 91 73 79 84 82 79 43 38 16 22 30 62 39 24
57 52 59 63 61 61 59 56 53 49 55 56 42 25 290 245 222 205 233 310 323 339 3 17 16 57 78 75 76 95 80 64 57 63 50 60 18 15 358 5 27 24 349
69 40 59 58 58 57 55 49 45 44 38 43 64 71 71 67 335 272 265 264 269 278 288 291 297 306 312 359 38 29 36 55 63 72 61 31 17 10 347 342 328 318 307
114 88 45 53 61 57 46 35 34 27 16 25 22 25 32 28 22 2 328 301 281 272 268 277 281 282 280 283 286 282 277 243 289 325 337 332 343 344 337 334 323 325 330
169 149 96 63 52 32 26 22 17 11 7 338 334 9 5 349 339 332 321 307 298 291 277 266 263 268 273 279 287 283 274 282 297 294 285 288 289 282 293 294 306 300 299
174 154 109 98 72 34 7 358 0 360 356 350 321 310 321 339 329 309 307 307 298 295 285 278 270 263 261 258 259 270 263 264 261 265 274 271 263 247 229 233 262 283 297
137 122 81 63 9 359 351 352 345 341 339 344 356 345 320 322 329 326 319 310 303 296 286 280 272 266 262 258 258 253 259 259 266 269 276 282 250 252 266 264 272 276 281
170 103 327 321 326 324 326 326 328 325 324 324 324 330 329 322 321 318 313 310 308 306 303 295 280 271 264 256 251 252 250 256 259 263 268 277 277 273 283 296 298 299 296
212 226 278 294 300 306 311 314 318 317 313 314 312 310 315 312 309 308 313 313 308 303 302 298 294 285 274 263 252 249 247 251 252 256 262 269 273 276 275 289 295 292 291
229 251 282 286 290 299 304 306 309 311 310 311 306 306 306 304 299 297 297 298 298 298 296 291 293 290 286 275 260 248 243 247 251 251 256 256 259 262 260 275 285 289 295
233 257 263 276 288 294 295 298 301 303 309 304 305 305 303 299 295 295 292 290 288 287 287 287 284 286 289 287 275 254 243 243 243 245 250 254 251 243 251 273 273 279 302
237 249 258 268 280 285 287 289 288 302 300 304 303 308 308 305 301 300 297 293 289 286 284 284 283 278 279 284 279 267 249 246 242 242 247 252 248 236 250 253 265 279 268
251 256 260 271 276 278 278 283 290 297 301 297 301 308 310 307 306 305 306 302 297 293 290 287 285 283 280 279 277 266 258 249 244 248 246 244 238 225 232 241 259 260 280
264 269 262 262 272 278 277 277 287 293 292 292 298 305 307 312 308 302 299 299 297 292 286 283 280 284 284 281 274 266 258 245 242 244 238 228 224 222 231 239 252 255 269
278 270 265 267 273 280 282 282 283 286 286 290 295 298 300 305 311 309 305 301 298 287 281 279 277 275 276 282 280 271 261 250 231 236 229 211 200 205 219 226 241 249 248
275 272 268 267 274 284 283 284 287 281 280 287 291 295 299 299 304 306 305 305 293 290 282 277 271 272 267 274 270 261 251 246 233 213 211 203 204 212 220 229 237 233 226